Location: Dittelspoint
(48.7198°N, 10.7214°E)
Time: 23:45:58
(UTC+00:00)

STARLINK-1241 - Pass Details

Date: 09 April 2020
Orbit: 549 x 551 km, 53.0° (Epoch: 29 May)

Event Time Altitude Azimuth Distance (km) Brightness Sun altitude
Rises 18:29:15 0° 289° (WNW) 2,725 10.2 -5.4°
Reaches altitude 10° 18:31:32 10° 294° (WNW) 1,830 8.1 -5.8°
Maximum altitude 18:35:37 53° 13° (NNE) 681 4.2 -6.4°
Drops below altitude 10° 18:39:41 10° 91° (E) 1,827 5.7 -7.0°
Enters shadow 18:40:08 - 92° (E) 1,999 5.9 -7.1°
